This is the latest recevied weather packets stored in our database for station/object VA3PC-13. If no packets are shown the sender has not sent any weather packets the latest 10 day(s).
| Time | Temp. | Humidity | Pressure | Rain* | Wind** | Luminosity | Snow |
|---|---|---|---|---|---|---|---|
| 1777487139 | 6.67° C | 68% | 982.2 hPa | 0 mm | - | 319 W/m² | - |
| 1777483517 | 6.11° C | 71% | 982 hPa | 0 mm | - | 850 W/m² | - |
| 1777481719 | 5° C | 77% | 983.1 hPa | 0 mm | - | 443 W/m² | - |
| 1777478720 | 5° C | 78% | 984 hPa | 0 mm | - | 293 W/m² | - |
| 1777472120 | 3.89° C | 81% | 984.4 hPa | 0 mm | - | 147 W/m² | - |
| 1777470940 | 4.44° C | 82% | 984 hPa | 0 mm | - | 330 W/m² | - |
| 1777469121 | 3.89° C | 81% | 984.2 hPa | 0 mm | - | 221 W/m² | - |
| 1777461922 | 3.89° C | 83% | 983.8 hPa | 0 mm | - | 54 W/m² | - |
| 1777452924 | 5° C | 88% | 982.9 hPa | 0 mm | - | 0 W/m² | - |
| 1777446925 | 6.11° C | 86% | 983 hPa | 0 mm | - | 0 W/m² | - |
| 1777444526 | 6.67° C | 88% | 982.5 hPa | 0 mm | - | 0 W/m² | - |
| 1777440948 | 7.22° C | 90% | 982.2 hPa | 0 mm | - | 0 W/m² | - |
| 1777439148 | 7.22° C | 91% | 982.7 hPa | 0 mm | - | 0 W/m² | - |
| 1777436748 | 7.22° C | 91% | 982.8 hPa | 0 mm | - | 0 W/m² | - |
| 1777432529 | 7.22° C | 91% | 982.4 hPa | 0 mm | - | 0 W/m² | - |
| 1777430749 | 7.78° C | 90% | 982.4 hPa | 0 mm | - | 0 W/m² | - |
| 1777427750 | 7.78° C | 91% | 982.4 hPa | 0 mm | - | 0 W/m² | - |
| 1777427130 | 7.78° C | 92% | 982.2 hPa | 0 mm | - | 0 W/m² | - |
| 1777424131 | 8.33° C | 94% | 981.3 hPa | 0 mm | - | 0 W/m² | - |
| 1777422332 | 8.33° C | 94% | 981 hPa | 0 mm | - | 2 W/m² | - |
| 1777416318 | 10° C | 94% | 979.8 hPa | 0 mm | - | 121 W/m² | - |
| 1777414518 | 10.56° C | 96% | 979.5 hPa | 0 mm | - | 40 W/m² | - |
| 1777412719 | 10.56° C | 97% | 978.7 hPa | 0 mm | - | 196 W/m² | - |
| 1777412118 | 10.56° C | 97% | 978.7 hPa | 0 mm | - | 122 W/m² | - |
| 1777410940 | 10.56° C | 97% | 978.5 hPa | 0 mm | - | 76 W/m² | - |
* Rain latest hour (hover to see other rain measurements)
** Current wind speed in m/s (hover to see current wind gust speed)